User: anonymous   Login
Location: *
(37.5724°S, 58.0067°E)
Time: 13:18:45
(UTC+00:00)
Language:

Atlas Centaur 2 - Orbit

View from above orbital plane
View from above orbital plane
View from above satellite
View from above satellite

Ground track
Ground track

The orbit data is extracted from the following two-line orbital elements,

1 00694U 63047A   21135.48082250  .00000569  00000-0  59386-4 0  9995
2 00694  30.3565 222.3988 0584783 190.0569 168.7862 14.02801125883755
Epoch (UTC): 15 May 2021 11:32:23
Eccentricity: 0.0584783
inclination: 30.3565°
perigee height: 459 km
apogee height: 1309 km
right ascension of ascending node: 222.3988°
argument of perigee: 190.0569°
revolutions per day: 14.02801125
mean anomaly at epoch: 168.7862°
orbit number at epoch: 88375

The dashed part of the orbit path shows where the satellite is in the earth's shadow,  

DLR